| time (UTC) | temp F | wind direction | speed knots | gust knots | rain 1hr in | rain 24hr in | rain mn in | humidity % | barometer mb |
| 20260507141303 | 64 | 202 | 11.3 | 13.9 | 0.00 | 0.00 | 0.00 | 100 | 1010.8 |
| 20260507135306 | 63 | 180 | 10.4 | 14.8 | 0.00 | 0.00 | 0.00 | 100 | 1010.9 |
| 20260507133302 | 64 | 90 | 9.6 | 13.9 | 0.00 | 0.00 | 0.00 | 100 | 1010.9 |
| 20260507131302 | 64 | 225 | 13.9 | 17.4 | 0.00 | 0.00 | 0.00 | 100 | 1011.0 |
| 20260507125306 | 64 | 135 | 8.7 | 13.9 | 0.00 | 0.00 | 0.00 | 100 | 1011.2 |
| 20260507115217 | 65 | 180 | 13.0 | 19.1 | 0.00 | 0.00 | 0.00 | 100 | 1011.5 |
| 20260507112215 | 65 | 90 | 13.9 | 19.1 | 0.00 | 0.00 | 0.00 | 100 | 1011.3 |
| 20260507111215 | 64 | 135 | 10.4 | 15.6 | 0.00 | 0.00 | 0.00 | 100 | 1011.5 |
| 20260507102211 | 64 | 180 | 13.0 | 16.5 | 0.00 | 0.00 | 0.00 | 100 | 1011.7 |
| 20260507101210 | 64 | 135 | 18.2 | 27.8 | 0.00 | 0.00 | 0.00 | 100 | 1011.8 |
| 20260507100210 | 65 | 90 | 8.7 | 13.9 | 0.00 | 0.00 | 0.00 | 100 | 1012.1 |
| 20260507095211 | 64 | 135 | 11.3 | 18.2 | 0.00 | 0.00 | 0.00 | 100 | 1011.9 |
| 20260507094208 | 64 | 315 | 9.6 | 13.9 | 0.00 | 0.00 | 0.00 | 100 | 1011.9 |
| 20260507093208 | 64 | 90 | 8.7 | 14.8 | 0.00 | 0.00 | 0.00 | 100 | 1012.1 |
| 20260507085205 | 64 | 180 | 13.9 | 20.0 | 0.00 | 0.00 | 0.00 | 100 | 1012.2 |
| 20260507084205 | 64 | 158 | 13.0 | 17.4 | 0.00 | 0.00 | 0.00 | 100 | 1012.2 |
| 20260507080203 | 63 | 0 | 13.9 | 20.9 | 0.00 | 0.00 | 0.00 | 100 | 1012.3 |
| 20260507075204 | 63 | 292 | 7.8 | 10.4 | 0.00 | 0.00 | 0.00 | 100 | 1012.0 |
| 20260507074203 | 63 | 141 | 9.6 | 13.0 | 0.00 | 0.00 | 0.00 | 100 | 1012.4 |
| 20260507072204 | 62 | 315 | 13.0 | 16.5 | 0.00 | 0.00 | 0.00 | 100 | 1012.1 |
| 20260507071202 | 61 | 130 | 11.3 | 14.8 | 0.00 | 0.00 | 0.00 | 100 | 1012.2 |
| 20260507070202 | 61 | 135 | 6.1 | 8.7 | 0.00 | 0.00 | 0.00 | 100 | 1012.2 |
| 20260507064202 | 61 | 225 | 7.0 | 12.2 | 0.00 | 0.00 | 0.00 | 100 | 1011.9 |
| 20260507062203 | 61 | 90 | 7.0 | 14.8 | 0.00 | 0.00 | 0.00 | 100 | 1012.0 |
| 20260507061204 | 61 | 0 | 13.9 | 20.0 | 0.00 | 0.00 | 0.00 | 100 | 1011.9 |
| 20260507060204 | 60 | 315 | 13.9 | 18.2 | 0.00 | 0.00 | 0.00 | 100 | 1011.7 |
| 20260507055205 | 60 | 141 | 15.6 | 21.7 | 0.00 | 0.00 | 0.00 | 100 | 1011.6 |
| 20260507054204 | 60 | 180 | 13.0 | 19.1 | 0.00 | 0.00 | 0.00 | 100 | 1011.3 |
| 20260507052203 | 60 | 90 | 13.0 | 21.7 | 0.00 | 0.00 | 0.00 | 100 | 1011.5 |
| 20260507044203 | 60 | 130 | 8.7 | 13.9 | 0.00 | 0.00 | 0.00 | 100 | 1011.7 |
| 20260507043203 | 60 | 90 | 7.0 | 8.7 | 0.00 | 0.00 | 0.00 | 100 | 1011.8 |
| 20260507041204 | 60 | 0 | 5.2 | 8.7 | 0.00 | 0.00 | 0.00 | 100 | 1011.7 |
| 20260507034205 | 59 | 90 | 7.0 | 12.2 | 0.00 | 0.00 | 0.00 | 100 | 1011.9 |
| 20260507023203 | 58 | 315 | 4.3 | 9.6 | 0.00 | 0.00 | 0.00 | 100 | 1013.5 |
| 20260507021203 | 58 | 248 | 7.8 | 9.6 | 0.00 | 0.00 | 0.00 | 100 | 1013.4 |
| 20260507020203 | 58 | 141 | 6.1 | 9.6 | 0.00 | 0.00 | 0.00 | 100 | 1013.4 |
| 20260507015203 | 58 | 90 | 6.1 | 7.0 | 0.00 | 0.00 | 0.00 | 100 | 1013.4 |
| 20260507013202 | 58 | 180 | 4.3 | 7.0 | 0.00 | 0.00 | 0.00 | 100 | 1013.5 |
| 20260507010203 | 58 | 90 | 3.5 | 7.8 | 0.00 | 0.00 | 0.00 | 100 | 1013.4 |
| 20260507005203 | 58 | 315 | 2.6 | 3.5 | 0.00 | 0.00 | 0.00 | 100 | 1013.6 |
| 20260507004201 | 58 | 225 | 4.3 | 7.0 | 0.00 | 0.00 | 0.00 | 100 | 1013.6 |
| 20260507003203 | 58 | 180 | 3.5 | 4.3 | 0.00 | 0.00 | 0.00 | 100 | 1013.5 |
| 20260506233203 | 58 | 270 | 7.8 | 12.2 | 0.00 | 0.00 | 0.00 | 100 | 1014.4 |
| 20260506232205 | 58 | 225 | 5.2 | 7.8 | 0.00 | 0.00 | 0.00 | 100 | 1014.8 |
| 20260506231203 | 58 | 0 | 4.3 | 8.7 | 0.00 | 0.00 | 0.00 | 100 | 1015.1 |
| 20260506230203 | 58 | 0 | 7.0 | 13.0 | 0.00 | 0.00 | 0.00 | 100 | 1015.1 |
| 20260506224202 | 58 | 0 | 6.1 | 7.8 | 0.00 | 0.00 | 0.00 | 100 | 1015.4 |
| 20260506222203 | 58 | 0 | 9.6 | 10.4 | 0.00 | 0.00 | 0.00 | 100 | 1014.9 |
| 20260506211202 | 60 | 270 | 7.0 | 9.6 | 0.00 | 0.00 | 0.00 | 100 | 1014.7 |
| 20260506210204 | 59 | 270 | 1.7 | 3.5 | 0.00 | 0.00 | 0.00 | 100 | 1015.1 |
| 20260506203203 | 60 | 135 | 3.5 | 6.1 | 0.00 | 0.00 | 0.00 | 100 | 1014.9 |
| 20260506201203 | 60 | 112 | 4.3 | 7.0 | 0.00 | 0.00 | 0.00 | 100 | 1014.8 |
| 20260506200202 | 60 | 90 | 2.6 | 3.5 | 0.00 | 0.00 | 0.00 | 100 | 1014.7 |
| 20260506191117 | 62 | 90 | 6.1 | 9.6 | 0.00 | 0.00 | 0.00 | 100 | 1013.8 |
| 20260506190116 | 63 | 135 | 1.7 | 4.3 | 0.00 | 0.00 | 0.00 | 100 | 1014.0 |
| 20260506185115 | 63 | 292 | 7.8 | 9.6 | 0.00 | 0.00 | 0.00 | 100 | 1013.5 |
| 20260506182115 | 64 | 225 | 7.0 | 9.6 | 0.00 | 0.00 | 0.00 | 100 | 1013.6 |
| 20260506181112 | 64 | 180 | 5.2 | 8.7 | 0.00 | 0.00 | 0.00 | 100 | 1014.0 |
| 20260506174202 | 65 | 225 | 8.7 | 13.0 | 0.00 | 0.00 | 0.00 | 100 | 1014.8 |
| 20260506171108 | 66 | 158 | 4.3 | 6.1 | 0.00 | 0.00 | 0.00 | 100 | 1014.8 |
| 20260506170107 | 67 | 0 | 4.3 | 7.0 | 0.00 | 0.00 | 0.00 | 100 | 1014.8 |
| 20260506164108 | 69 | 135 | 5.2 | 7.8 | 0.00 | 0.00 | 0.00 | 100 | 1014.2 |
| 20260506161105 | 70 | 158 | 3.5 | 4.3 | 0.00 | 0.00 | 0.00 | 100 | 1014.2 |
| 20260506160104 | 71 | 135 | 6.1 | 7.8 | 0.00 | 0.00 | 0.00 | 100 | 1014.0 |
| 20260506155104 | 72 | 135 | 2.6 | 3.5 | 0.00 | 0.00 | 0.00 | 100 | 1014.4 |
| 20260506145102 | 72 | 135 | 6.1 | 7.0 | 0.00 | 0.00 | 0.00 | 100 | 1015.2 |
| 20260506144103 | 72 | 135 | 3.5 | 3.5 | 0.00 | 0.00 | 0.00 | 100 | 1015.2 |